www.pogodaiklimat.ru

Погода и климат >> Архив погоды >> Великобритания >> Одихем


ПОГОДА в Одихеме

  • Прогноз погоды в Одихеме
  • Монитор погоды в Одихеме

АРХИВ ПОГОДЫ в Одихеме

Время (UTC), дата Ветер
(напр.,м/с)
 
Видим.   Явления Облачность Т
(С)
Тd
(С)
f
(%)
Тe
(С)
Тes
(С)
Комфортность P
(гПа)
Po
(гПа)
Тmin
(С)
Tmax
(С)
R
(мм)
R24
(мм)
S
(см)
19 10.06 СЗ 4 6000 м слаб. дождь 10/10 150 м
[Frnb]
+8.7 +8.3 97 +5 +5 1012.3 997.9
20 10.06 СЗ 4 5000 м слаб. дождь 10/10 90 м
[Frnb]
+8.7 +8.4 98 +6 +6 1011.8 997.5
21 10.06 СЗ 3 5000 м слаб. дождь 10/10 90 м
[Frnb]
+9.1 +8.9 99 +7 +7 1011.6 997.3
22 10.06 С 5 4000 м сильн. дождь 10/10 90 м
[Frnb]
+10.3 +10.1 99 +7 +7 1011.3 997.0
23 10.06 СЗ 6 7000 м дождь 10/10 180 м
[Frnb]
+9.8 +9.4 97 +6 +6 1010.9 996.6
00 11.06 С 6 15 км слаб. дождь 10/10 150 м
[Frnb]
+9.8 +9.3 97 +6 +6 1010.1 995.9 18
01 11.06 С 6 20 км в посл. час дождь 10/10 120 м
[St]
+9.9 +9.6 98 +6 +6 1009.8 995.5
02 11.06 С 4 19 км в посл. час дождь н/о +10.1 +9.9 99 +7 +7 1009.6 995.4
03 11.06 С 5 18 км слаб. ливневой дождь н/о +10.5 +10.2 98 +7 +7 1009.5 995.2
04 11.06 С 4 35 км в посл. час дождь н/о +10.4 +9.9 97 +8 +8 1009.4 995.2
05 11.06 СВ 3 3000 м дымка 10/10 60 м
[St]
+10.4 +10.3 99 +8 +8 1009.8 995.6
06 11.06 В 2 15 км {дождь} 10/10 60 м
[St]
+10.8 +10.4 97 +9 +9 1010.2 996.0 +8.7 18
07 11.06 В 3 20 км 9/9 210 м
[St]
+11.3 +10.4 94 +9 +10 1010.8 996.5
08 11.06 В 3 25 км 9/9 270 м
[Cu Sc]
+12.3 +10.4 88 +11 +11 1011.1 996.9
09 11.06 В 3 30 км 8/8 400 м
[Cu hum]
+12.8 +10.1 84 +11 +13 1011.4 997.2
10 11.06 В 3 30 км 8/8 420 м
[Cu Sc]
+13.6 +10.0 79 +13 +15 1011.6 997.5
11 11.06 С 3 30 км 8/8 400 м
[Cu Sc]
+13.7 +10.8 83 +13 +16 1011.8 997.7
12 11.06 СВ 2 25 км 8/8 540 м
[Sc diur, vesp]
+15.2 +10.5 74 +15 +19 1011.7 997.7
13 11.06 С 5 30 км 9/9 480 м
[Cu Sc]
+14.7 +11.1 79 +13 +14 1011.9 997.8
14 11.06 С 5 30 км слаб. ливневой дождь 10/10 400 м
[Cu Sc]
+13.7 +11.0 84 +12 +12 1012.2 998.1
15 11.06 С 7 30 км в посл. час ливневой дождь 9/9 360 м
[Cu Sc]
+14.6 +11.4 81 +13 +13 1012.2 998.1
16 11.06 С 7 30 км 8/8 400 м
[St]
+13.6 +10.6 82 +11 +12 1012.4 998.3
17 11.06 С 7 30 км 9/9 330 м
[St]
+12.5 +10.0 85 +10 +10 1012.3 998.1
18 11.06 С 5 30 км {ливн. осадки} 10/10 300 м
[St]
+11.9 +9.8 87 +9 +9 1012.9 998.7 +15.9 0.0
19 11.06 С 4 30 км 10/10 330 м
[St]
+11.8 +9.5 86 +10 +10 1013.2 999.0
20 11.06 С 5 30 км 10/10 300 м
[St]
+11.3 +9.2 87 +9 +9 1013.4 999.1
21 11.06 С 6 25 км 10/10 270 м
[St]
+10.8 +9.1 89 +8 +8 1013.4 999.1
22 11.06 С 5 15 км 10/10 180 м
[St]
+10.2 +9.1 93 +7 +7 1013.3 999.0
23 11.06 С 5 15 км 10/10 150 м
[St]
+10.1 +9.2 94 +7 +7 1012.9 998.6
00 12.06 С 4 10 км 10/10 90 м
[St]
+9.8 +9.3 97 +7 +7 1012.4 998.1
01 12.06 С 4 10 км 10/10 120 м
[St]
+9.9 +9.3 96 +7 +7 1012.1 997.8
02 12.06 С 4 15 км 10/10 120 м
[St]
+9.9 +9.2 95 +7 +7 1011.4 997.1
03 12.06 С 4 22 км н/о +9.9 +9.1 95 +7 +7 1011.0 996.7
04 12.06 С 4 19 км н/о +9.9 +9.1 95 +7 +7 1011.0 996.7
05 12.06 С 4 20 км 10/10 180 м
[St]
+10.0 +9.0 93 +7 +7 1010.7 996.5
06 12.06 С 4 30 км 10/10 180 м
[St]
+10.4 +9.1 92 +8 +8 1010.7 996.5 +9.8
07 12.06 СВ 3 25 км 9/9 210 м
[St]
+10.4 +9.1 92 +8 +9 1010.6 996.4
08 12.06 СВ 3 25 км 10/10 240 м
[St]
+10.9 +9.1 89 +9 +9 1010.2 996.0
09 12.06 С 3 25 км 9/9 330 м
[Sc]
+11.8 +9.2 84 +10 +11 1010.0 995.9
10 12.06 СЗ 3 25 км 8/8 420 м
[Cu hum Ac trans]
+12.9 +9.4 79 +12 +14 1009.7 995.6
11 12.06 С 3 30 км в посл. час туман н/о +13.7 +9.1 74 +13 +13 1009.9 995.8
12 12.06 С 4 35 км н/о +14.0 +9.8 76 +13 +13 1009.5 995.5
13 12.06 С 4 18 км слаб. ливневой дождь н/о +13.9 +9.9 77 +13 +13 1009.4 995.3
14 12.06 СЗ 3 17 км слаб. дождь н/о +13.2 +10.0 81 +12 +12 1009.5 995.4
15 12.06 С 3 11 км дождь н/о +12.9 +10.6 86 +12 +12 1009.4 995.3
16 12.06 С 3 17 км слаб. дождь н/о +12.7 +10.7 88 +11 +11 1009.0 994.9
17 12.06 С 4 11 км дождь н/о +12.4 +11.2 92 +11 +11 1008.7 994.6
18 12.06 СЗ 2 10 км слаб. дождь н/о +12.2 +11.3 94 +11 +11 1008.3 994.2 +14.1 1
19 12.06 С 1 8000 м дождь н/о +12.0 +11.0 94 +12 +12 1008.1 994.0
20 12.06 З 1 6000 м дождь н/о +11.8 +11.2 96 +12 +12 1008.2 994.0
21 12.06 З 2 7000 м слаб. дождь н/о +11.3 +10.7 96 +10 +10 1008.3 994.2
22 12.06 ЮЗ 2 4500 м слаб. дождь н/о +11.2 +10.8 97 +10 +10 1008.1 993.9
23 12.06 Ю 2 6000 м слаб. дождь н/о +10.9 +10.5 97 +9 +9 1007.5 993.3
00 13.06 ЮЗ 3 6000 м слаб. дождь н/о +10.8 +10.5 98 +9 +9 1006.9 992.8 2
01 13.06 ЮЗ 3 7000 м в посл. час дождь н/о +10.9 +10.4 97 +9 +9 1006.4 992.2
02 13.06 Ю 4 10 км в посл. час дождь н/о +10.9 +10.3 96 +8 +8 1005.8 991.7
03 13.06 Ю 3 10 км в посл. час дождь н/о +10.9 +10.4 97 +9 +9 1005.4 991.3
04 13.06 ЮЗ 3 8000 м в посл. час дождь н/о +11.2 +10.4 95 +9 +9 1005.3 991.1
05 13.06 Ю 4 8000 м в посл. час дождь н/о +11.1 +10.3 95 +9 +9 1005.3 991.1
06 13.06 Ю 4 12 км н/о +11.4 +10.6 95 +9 +9 1005.0 990.8 +10.8 2
07 13.06 ЮЗ 6 5000 м дождь н/о +11.0 +9.9 93 +8 +8 1005.0 990.9
08 13.06 Ю 5 7000 м дождь н/о +10.9 +10.0 94 +8 +8 1005.0 990.8
09 13.06 Ю 5 28 км слаб. ливневой дождь н/о +11.9 +10.5 91 +9 +9 1005.0 990.9
10 13.06 Ю 7 16 км ливневой дождь н/о +11.4 +10.5 94 +8 +8 1005.2 991.0
11 13.06 Ю 8
{13}
16 км слаб. дождь н/о +12.6 +11.3 92 +9 +9 1005.2 991.1
12 13.06 Ю 9
{13}
20 км слаб. дождь н/о +12.2 +10.5 89 +9 +9 1005.3 991.2 8
13 13.06 Ю 8
{13}
6000 м слаб. дождь н/о +12.5 +11.2 92 +9 +9 1005.3 991.3
14 13.06 Ю 9
{13}
13 км в посл. час дождь н/о +12.7 +11.1 90 +9 +9 1005.2 991.2
15 13.06 Ю 9
{13}
4900 м слаб. ливневой дождь н/о +12.3 +11.2 93 +9 +9 1005.5 991.4
16 13.06 ЮЗ 8 15 км слаб. дождь {морось} 10/10 300 м
[Sc]
+13.0 +11.4 90 +10 +10 1005.4 991.3
17 13.06 ЮЗ 7
{13}
8000 м слаб. дождь 10/10 300 м
[Sc]
+12.6 +11.0 90 +10 +10 1005.5 991.4
18 13.06 ЮЗ 6 10 км слаб. дождь {морось} 10/10 210 м
[St]
+12.4 +11.7 95 +10 +10 1005.8 991.7 +13.2 9
19 13.06 ЮЗ 6 10 км слаб. дождь 10/10 210 м
[Sc]
+11.8 +10.9 94 +9 +9 1006.7 992.6
20 13.06 ЮЗ 5 4000 м слаб. дождь 9/9 210 м
[Sc]
+11.5 +10.8 95 +9 +9 1007.3 993.1
21 13.06 ЮЗ 5 12 км слаб. дождь 9/9 300 м
[Sc]
+11.2 +10.5 95 +8 +8 1008.3 994.1
22 13.06 Ю 4 30 км в посл. час дождь 9/9 270 м
[Sc Ac As]
+11.1 +10.7 97 +9 +9 1008.5 994.3
23 13.06 Ю 4 15 км 9/9 300 м
[Sc]
+11.8 +11.3 97 +10 +10 1008.6 994.5
00 14.06 Ю 4 15 км в посл. час дождь 10/10 240 м
[Sc]
+12.0 +11.3 95 +10 +10 1008.5 994.4 2
01 14.06 Ю 4 10 км слаб. дождь 10/10 300 м
[Sc]
+11.8 +11.2 96 +10 +10 1008.4 994.3
02 14.06 Ю 4 11 км слаб. дождь н/о +11.8 +11.1 95 +10 +10 1008.2 994.0
03 14.06 Ю 6 16 км слаб. дождь н/о +11.7 +11.1 96 +9 +9 1008.2 994.0
04 14.06 Ю 6 15 км дождь 10/9 300 м
[Sc Ac As]
+11.8 +10.9 94 +9 +9 1008.6 994.4
05 14.06 Ю 6 12 км слаб. дождь 9/9 300 м
[Sc]
+11.8 +10.9 94 +9 +9 1008.6 994.4
06 14.06 Ю 6 20 км в посл. час дождь 10/10 240 м
[St]
+11.8 +11.0 95 +9 +9 1008.8 994.7 +11.0 4
07 14.06 Ю 6 20 км 9/6 420 м
[Sc Ac trans]
+13.1 +11.3 89 +11 +11 1009.0 994.9
08 14.06 Ю 6 20 км 9/8 360 м
[Sc Ci fib]
+13.5 +11.6 88 +11 +12 1009.4 995.4
09 14.06 Ю 7 25 км 8/6 480 м
[Cu Sc Ac trans]
+14.4 +11.4 82 +12 +13 1009.7 995.6
10 14.06 Ю 7 25 км 8/8 600 м
[Cu Sc]
+15.4 +11.3 77 +14 +15 1009.9 995.9
11 14.06 Ю 7 25 км в посл. час ливневой дождь 8/8 600 м
[Cu Sc]
+14.9 +10.2 73 +13 +14 1010.5 996.5
12 14.06 ЮЗ 8
{13}
30 км {ливн. осадки} 4/3 800 м
[Cu hum Ac trans Ci fib]
+16.3 +9.6 65 +15 +17 1010.3 996.4 0.2
13 14.06 Ю 7 30 км 9/9 700 м
[Sc diur, vesp]
+16.1 +10.1 68 +15 +15 1010.6 996.6
14 14.06 ЮЗ 7 30 км 5/4 720 м
[Sc diur, vesp Ac trans]
+16.5 +9.7 64 +15 +17 1011.0 997.0
15 14.06 Ю 8 30 км 4/4 840 м
[Cu hum]
+17.0 +9.9 63 +16 +17 1010.9 997.0
16 14.06 Ю 7 35 км 4/4 960 м
[Cu hum]
+16.9 +8.7 58 +16 +17 1010.8 996.9
17 14.06 Ю 6 35 км 1/1 960 м
[Cu hum]
+16.3 +9.4 64 +15 +17 1010.9 996.9
18 14.06 Ю 6 35 км 5/5 960 м
[Cu Sc]
+16.7 +9.1 61 +16 +16 1011.2 997.3 +18.2 0.2
19 14.06 Ю 4 40 км 3/1 960 м
[Sc diur, vesp Ci fib]
+15.1 +9.0 67 +14 +14 1011.3 997.3
20 14.06 Ю 3 40 км 5/5 1500 м
[Sc Ci fib]
+14.0 +9.0 72 +13 +13 1011.6 997.5
21 14.06 ЮВ 3 35 км 5/5 1500 м
[Sc Ci fib]
+10.7 +7.6 81 +9 +9 1012.2 997.9
22 14.06 Ю 4 40 км 3/3 1500 м
[Sc]
+12.0 +8.7 80 +10 +10 1012.3 998.1
23 14.06 Ю 3 35 км н/о +10.1 +8.3 89 +8 +8 1012.4 998.1
00 15.06 Ю 3 30 км н/о +10.7 +8.9 89 +9 +9 1012.4 998.2
01 15.06 Ю 2 30 км н/о +10.9 +9.1 89 +9 +9 1012.3 998.0
02 15.06 Ю 3 30 км н/о +10.3 +8.9 91 +8 +8 1012.2 997.9
03 15.06 Ю 4 30 км н/о +10.8 +9.4 91 +8 +8 1011.8 997.5
04 15.06 Ю 3 28 км н/о +9.8 +8.2 90 +7 +7 1012.1 997.8
05 15.06 ЮВ 4 22 км н/о +11.3 +10.2 93 +9 +9 1012.0 997.7
06 15.06 Ю 4 9000 м в посл. час туман н/о +12.1 +10.7 91 +10 +10 1012.0 997.8 +9.3
07 15.06 ЮВ 5 25 км в посл. час дождь н/о +13.5 +11.6 88 +12 +12 1012.0 997.9
08 15.06 Ю 5 35 км н/о +14.7 +10.5 76 +13 +13 1011.9 997.9
09 15.06 Ю 7 40 км н/о +16.2 +10.5 69 +15 +15 1012.1 998.1
10 15.06 Ю 7 35 км н/о +15.8 +9.5 66 +14 +14 1012.2 998.2
11 15.06 Ю 7
{13}
35 км н/о +16.9 +9.7 63 +16 +16 1012.2 998.3
12 15.06 Ю 8 26 км н/о +15.6 +10.7 73 +14 +14 1012.8 998.8 0.0
13 15.06 Ю 6 30 км в посл. час дождь н/о +15.0 +11.1 77 +13 +13 1012.8 998.8
14 15.06 Ю 7 25 км в посл. час дождь н/о +15.0 +13.0 88 +13 +13 1012.8 998.7
15 15.06 Ю 8
{13}
30 км в посл. час дождь н/о +16.0 +10.9 72 +14 +14 1012.8 998.8
16 15.06 Ю 7
{13}
30 км в посл. час дождь н/о +17.2 +10.7 66 +16 +16 1012.5 998.6
17 15.06 Ю 7 29 км слаб. морось с дождем н/о +16.0 +11.1 73 +14 +14 1012.7 998.7
18 15.06 Ю 6 35 км в посл. час дождь н/о +14.9 +10.7 76 +13 +13 1013.0 999.0 +17.9 0.2
19 15.06 Ю 6 40 км 6/3 540 м
[Cu Sc Ci fib]
+13.8 +9.4 75 +12 +12 1013.3 999.2
20 15.06 Ю 4 35 км н/о +12.3 +9.4 82 +10 +10 1013.6 999.4
21 15.06 Ю 3 30 км н/о +11.0 +8.5 85 +9 +9 1014.0 999.7
22 15.06 Ю 4 29 км н/о +10.8 +8.9 88 +8 +8 1014.5 1000.2
23 15.06 ЮЗ 4 25 км н/о +10.5 +9.1 91 +8 +8 1015.0 1000.7
00 16.06 Ю 5 24 км н/о +10.1 +9.2 94 +7 +7 1015.2 1000.9
01 16.06 Ю 5 14 км н/о +10.1 +9.3 95 +7 +7 1015.3 1001.0
02 16.06 Ю 4 15 км н/о +10.2 +9.3 94 +7 +7 1015.2 1000.9
03 16.06 Ю 4 19 км н/о +9.8 +9.4 97 +7 +7 1015.3 1001.0
04 16.06 Ю 4 16 км н/о +10.5 +10.2 98 +8 +8 1015.4 1001.0
05 16.06 Ю 4 18 км н/о +11.7 +11.1 96 +9 +9 1015.3 1001.0
06 16.06 Ю 5 20 км н/о +12.6 +11.4 92 +10 +10 1015.4 1001.2 +9.4
07 16.06 Ю 5 11 км ливневой дождь н/о +12.6 +11.9 95 +10 +10 1015.6 1001.4
08 16.06 Ю 7 16 км в посл. час дождь н/о +13.8 +12.6 92 +11 +11 1015.9 1001.7
09 16.06 Ю 7 25 км в посл. час дождь н/о +14.4 +12.9 91 +12 +12 1016.0 1001.9
10 16.06 Ю 8 30 км в посл. час дождь н/о +16.4 +13.7 84 +15 +15 1016.1 1002.0
11 16.06 Ю 8
{13}
35 км н/о +16.8 +12.8 77 +15 +15 1016.3 1002.3
12 16.06 Ю 8
{13}
35 км н/о +18.7 +13.1 70 +19 +19 1016.5 1002.5 2
13 16.06 Ю 9
{13}
30 км н/о +17.2 +11.7 70 +16 +16 1016.9 1002.9
14 16.06 ЮЗ 8
{13}
30 км н/о +17.7 +12.6 72 +17 +17 1017.1 1003.1
15 16.06 ЮЗ 9
{13}
30 км н/о +17.2 +12.1 72 +16 +16 1017.5 1003.5
16 16.06 ЮЗ 7
{14}
30 км 6/4 660 м
[Sc diur, vesp Ac trans]
+17.0 +11.3 69 +16 +17 1017.4 1003.4
17 16.06 Ю 9 30 км н/о +17.4 +11.3 67 +16 +16 1017.5 1003.5
18 16.06 Ю 9
{14}
30 км н/о +16.9 +10.7 67 +15 +15 1017.7 1003.6 +18.7 2
19 16.06 ЮЗ 7
{13}
30 км 6/6 600 м
[Cu Sc]
+15.4 +10.0 70 +14 +14 1017.9 1003.8
20 16.06 Ю 6 30 км 9/9 600 м
[Cu Sc]
+14.5 +10.4 76 +13 +13 1018.1 1003.9
21 16.06 Ю 5 30 км 6/6 1350 м
[Sc]
+13.6 +10.4 81 +12 +12 1018.5 1004.3
22 16.06 Ю 4 25 км 6/5 1350 м
[Sc Ac trans]
+13.0 +10.4 84 +11 +11 1018.6 1004.4
23 16.06 Ю 4 25 км 9/9 1200 м
[Sc]
+13.4 +11.0 85 +12 +12 1018.4 1004.2
00 17.06 Ю 3 25 км 5/5 1260 м
[Sc]
+12.6 +10.5 87 +11 +11 1018.4 1004.2
01 17.06 В 3 17 км н/о +10.7 +9.6 93 +9 +9 1018.4 1004.1
02 17.06 ЮВ 3 17 км н/о +10.3 +9.6 95 +8 +8 1018.1 1003.7
03 17.06 ЮВ 3 15 км 1/1 300 м
[St]
+10.5 +9.7 95 +9 +9 1018.0 1003.6
04 17.06 ЮВ 3 15 км 1/1 300 м
[St]
+10.8 +10.3 97 +9 +9 1017.9 1003.6
05 17.06 Ю 4 18 км 1/1 300 м
[St]
+11.9 +10.6 92 +10 +10 1018.0 1003.7
06 17.06 Ю 5 25 км 9/9 1020 м
[Sc]
+13.3 +11.7 90 +11 +11 1018.1 1003.9 +9.5
07 17.06 Ю 5 25 км 8/8 450 м
[Cu Sc]
+14.5 +11.0 80 +13 +13 1018.4 1004.3
08 17.06 Ю 6 30 км 8/8 750 м
[Cu Sc]
+15.8 +10.2 69 +14 +15 1018.4 1004.3
09 17.06 Ю 7 30 км 6/6 900 м
[Sc diur, vesp]
+15.9 +9.1 64 +14 +16 1018.4 1004.3
10 17.06 Ю 7 35 км 5/5 960 м
[Sc diur, vesp Ci fib]
+17.7 +9.8 60 +17 +19 1018.1 1004.1
11 17.06 ЮЗ 6 30 км 6/6 900 м
[Sc Ci fib]
+17.4 +9.2 59 +17 +19 1018.0 1004.0
12 17.06 Ю 6 30 км 6/6 1050 м
[Sc diur, vesp]
+18.1 +9.3 56 +18 +20 1017.7 1003.7
13 17.06 ЮЗ 6 30 км н/о +18.9 +10.8 59 +19 +19 1017.5 1003.6
14 17.06 ЮЗ 6 27 км н/о +18.9 +10.3 57 +19 +19 1017.3 1003.4
15 17.06 ЮЗ 7 30 км 5/4 1050 м
[Sc diur, vesp Ci fib]
+18.5 +9.5 56 +18 +20 1017.1 1003.2
16 17.06 Ю 7 30 км 8/1 1050 м
[Sc diur, vesp Ac trans Ci fib]
+17.4 +9.0 58 +17 +18 1017.0 1003.0
17 17.06 Ю 6 30 км 9/1 1050 м
[Sc diur, vesp Ac trans Ci fib]
+18.5 +10.1 58 +18 +19 1016.7 1002.7
18 17.06 Ю 6 30 км 8/3 1050 м
[Sc diur, vesp Ac trans Ci fib]
+17.0 +8.8 58 +16 +17 1016.7 1002.7 +19.6
19 17.06 ЮЗ 5 30 км 6/1 1050 м
[Sc diur, vesp Ac As Ci fib]
+16.2 +9.2 63 +15 +16 1016.6 1002.5
20 17.06 Ю 3 35 км 4/1 1200 м
[Sc Ac As Ci fib]
+14.5 +9.6 72 +14 +14 1016.7 1002.5

 

Местоположение метеостанции Одихем (Великобритания): широта 51.23 долгота -0.95 высота над уровнем моря 118 м.

В архиве по умолчанию представлена погода в Одихеме за последнюю неделю. Архивные данные за месяц целиком и за предыдущие месяцы, начиная с января 2011 года, Вы можете получить, выбрав интересующий диапазон дат из раскрывающегося списка и нажав кнопку "Ввод!".


*Определитесь, кто Вы:
робот инопланетянин человек

Внимание! Время в таблицах - всемирное. Для получения местного времени необходимо прибавить поправку, которая равна 0 ч.

Смотрите также архив погоды в соседних городах и на ближайших метеорологических станциях:

Погода в Фарнборо (Великобритания) (14 км)
Погода в Чарлвуде (Великобритания) (40 км)
Погода в Мидл Уоллоп (Великобритания) (44 км)
Погода в Бенсоне (Великобритания) (44 км)
Погода в Аэропорту Хитроу (Великобритания) (44 км)
Погода на Острове Торвер (Великобритания) (46 км)
Погода в Хай-Уикоме (Великобритания) (51 км)
Погода в Норхолте (Великобритания) (51 км)
Погода в Ли-он-те-Соленте (Великобритания) (51 км)
Погода в Боскомб Даун (Великобритания) (56 км)

Пояснения к столбцам:

Ветер - указаны скорость ветра в м/с - средняя за 10 мин, порывы в срок и между сроками (в фигурных скобках) и направление, откуда дует ветер: С - северный, СВ - северо-восточный, В - восточный, ЮВ - юго-восточный, Ю - южный, ЮЗ - юго-западный, З - западный, СЗ - северо-западный.
Видимость - горизонтальная дальность видимости в метрах или километрах. При видимости от 1 до 10 км при отсутствии осадков обычно наблюдается дымка, при ухудшении видимости до 1 км и менее - туман. В сухую погоду видимость может ухудшаться дымом, пылью или мглою.
Явления - указаны атмосферные явления, наблюдавшиеся в срок или в последний час перед сроком; фигурными скобками обозначены явления, наблюдавшиеся между сроками (за 1-3 часа до срока); квадратными скобками обозначены град или гололедные отложения с указанием их диаметра в мм.
Облачность - указаны через наклонную черту общая и нижняя облачность в баллах и высота нижней границы облаков в метрах; квадратными скобками обозначены формы облаков: Ci - перистые, Cs - перисто-слоистые, Cc - перисто-кучевые, Ac - высококучевые, As - высокослоистые, Sc - слоисто-кучевые, Ns - слоисто-дождевые, Cu - кучевые, Cb - кучево-дождевые. Подробнее классификацию облаков см. в Атласе облаков (PDF).
T - Температура воздуха - температура, измеренная на высоте 2 м над землей.
Td - Температура точки росы - температура, при понижении до которой содержащийся в воздухе водяной пар достигнет насыщения.
f - Относительная влажность воздуха - влажноcть воздуха, измеренная на высоте 2 м над землей.
Te - Эффективная температура - температура, которую ощущает одетый по сезону человек в тени. Характеристика душности погоды. При расчете учитывается влияние влажности воздуха и скорости ветра на теплоощущения человека.
Tes - Эффективная температура на солнце - температура, которую ощущает человек, с поправкой на солнечный нагрев. Характеристика знойности погоды. Зависит от высоты солнца над горизонтом, облачности и скорости ветра. Ночью, в пасмурную погоду, а также при ветре 12 м/с и более поправка равна нулю.
P - Атмосферное давление - приведенное к уровню моря атмосферное давление.
Po - Атмосферное давление - измеренное на уровне метеостанции атмосферное давление.
Tmin - Минимальная температура - минимум температуры воздуха на высоте 2 м над землей.
Tmax - Максимальная температура - максимум температуры воздуха на высоте 2 м над землей.
R - Количество осадков - Количество выпавших осадков за период времени, мм. При наведении курсора мыши на число - период времени, за который выпало указанное количество осадков.
R24 - Количество осадков - Количество выпавших осадков за 24 часа, мм.
S - Снежный покров - Высота снежного покрова, см. При наведении курсора мыши на число - состояние снежного покрова и степень покрытия местности в баллах.